Humboldt County, CA Past Weather

Last 30 Days

High: 55ºf @10:51 AM    Low: 46ºf @5:51 AM     Approx. Precipitation / Rain Total: in.
Time (PST)Temp. (ºf)Humidity (%)Dew Point (ºf)Barometer (inHG)Wind Speed (mph)Wind DirectionWind Gust (mph)1hr. Precip / Rain Total (in.)Snow Depth
5:51 PM489847.46-0.87w2.61--
4:51 PM509348.06---4.34--
3:51 PM518947.87---6.08--
2:51 PM537344.58-0.87ssw11.3--
1:51 PM547044.44-6.08s16.51--
12:51 PM538047-4.34s15.64--
11:51 AM547245.18-5.21s12.17--
10:51 AM557145.77-5.21s13.03--
9:51 AM538347.98---6.08--
8:51 AM479545.64-1.74ssw7.82--
7:51 AM479746.19---4.34--
6:51 AM479445.36-1.74w6.95--
5:51 AM469845.47-0.87ssw5.21--
4:51 AM479345.08---4.34--
3:51 AM479044.22-1.74ssw6.08--
2:51 AM469845.47-0.87nw3.48--
1:51 AM479746.19-1.74nnw5.21--
12:51 AM489346.07-1.74s5.21--
High: 54ºf @2:51 PM    Low: 44ºf @4:51 AM     Approx. Precipitation / Rain Total: in.
Time (PST)Temp. (ºf)Humidity (%)Dew Point (ºf)Barometer (inHG)Wind Speed (mph)Wind DirectionWind Gust (mph)1hr. Precip / Rain Total (in.)Snow Depth
11:51 PM489847.46---6.08--
10:51 PM489947.73-0.87wnw8.69--
9:51 PM489947.73---7.82--
8:51 PM489947.73-1.74ssw6.08--
7:51 PM499146.49-0.87sw10.43--
6:51 PM489847.46-0.87ssw10.43--
5:51 PM499547.63-4.34s10.43--
4:51 PM499748.19-0.87sw12.17--
3:51 PM509548.62-3.48ssw17.38--
2:51 PM547345.54-5.21sse24.33--
1:51 PM538448.3-5.21s14.77--
12:51 PM529049.16-3.48se12.17--
11:51 AM489847.46-0.87sw4.34--
10:51 AM489747.19-0.87w6.08--
9:51 AM469845.47-0.87sw10.43--
8:51 AM469644.92-0.87s10.43--
7:51 AM479244.8-1.74s13.03--
6:51 AM498143.43-2.61se9.56--
5:51 AM478943.93-1.74ssw9.56--
4:51 AM4410044-0.87wsw3.48--
3:51 AM4510045-0.87w4.34--
2:51 AM459944.74---2.61--
1:51 AM459643.93-0.87wsw6.08--
12:51 AM449843.47-0.87sw6.08--
High: 56ºf @12:51 PM    Low: 45ºf @5:51 AM     Approx. Precipitation / Rain Total: in.
Time (PST)Temp. (ºf)Humidity (%)Dew Point (ºf)Barometer (inHG)Wind Speed (mph)Wind DirectionWind Gust (mph)1hr. Precip / Rain Total (in.)Snow Depth
11:51 PM459643.93-0.87wsw2.61--
10:51 PM459543.65-0.87wnw3.48--
9:51 PM459844.47-0.87w3.48--
8:51 PM469745.2-3.48nw13.9--
7:51 PM488443.4-2.61sse11.3--
6:51 PM489145.5-3.48s12.17--
5:51 PM509448.34-4.34s11.3--
4:51 PM489947.73-0.87sw13.9--
3:51 PM508545.67-6.08se15.64--
2:51 PM508445.36-2.61s12.17--
1:51 PM545638.66-1.74ssw16.51--
12:51 PM564434.4-5.21ese13.03--
11:51 AM527243.26-1.74sw7.82--
10:51 AM557446.87-1.74sw5.21--
9:51 AM489045.21-0.87sw4.34--
8:51 AM469544.65-1.74sw4.34--
7:51 AM469344.09-0.87wsw3.48--
6:51 AM459643.93-0.87sw5.21--
5:51 AM4510045---2.61--
4:51 AM4610046-0.87w3.48--
3:51 AM4610046---2.61--
2:51 AM4610046-0.87w2.61--
1:51 AM4610046---4.34--
12:51 AM4610046-1.74nw3.48--
High: 53ºf @10:51 AM    Low: 46ºf @11:51 PM     Approx. Precipitation / Rain Total: in.
Time (PST)Temp. (ºf)Humidity (%)Dew Point (ºf)Barometer (inHG)Wind Speed (mph)Wind DirectionWind Gust (mph)1hr. Precip / Rain Total (in.)Snow Depth
11:51 PM4610046---3.48--
10:51 PM469945.73---3.48--
9:51 PM469945.73-0.87nnw2.61--
8:51 PM469845.47---6.08--
7:51 PM479946.73---3.48--
6:51 PM479445.36-1.74ne10.43--
5:51 PM489847.46-1.74nne19.99--
4:51 PM509247.77-1.74sse11.3--
3:51 PM528347-1.74sse10.43--
2:51 PM537946.66-4.34se16.51--
1:51 PM529149.45-2.61sse9.56--
12:51 PM519649.9-0.87w6.95--
11:51 AM529149.45-1.74ssw6.95--
10:51 AM537846.33-3.48se9.56--
9:51 AM509147.48---13.03--
8:51 AM509047.18---3.48--
7:51 AM499246.78---4.34--
6:51 AM508144.4-0.87ssw6.95--
5:51 AM507843.41---6.95--
4:51 AM507843.41-0.87wsw7.82--
3:51 AM507743.08-0.87sw5.21--
2:51 AM526942.15-0.87wsw12.17--
1:51 AM527042.52---4.34--
12:51 AM527142.89---3.48--
High: 55ºf @3:51 PM    Low: 46ºf @2:51 AM     Approx. Precipitation / Rain Total: in.
Time (PST)Temp. (ºf)Humidity (%)Dew Point (ºf)Barometer (inHG)Wind Speed (mph)Wind DirectionWind Gust (mph)1hr. Precip / Rain Total (in.)Snow Depth
11:51 PM527142.89---4.34--
10:51 PM527243.26-1.74wnw4.34--
9:51 PM518546.65-1.74nne3.48--
8:51 PM509749.18-0.87nnw5.21--
7:51 PM519248.76---5.21--
6:51 PM519750.18-2.61n5.21--
5:51 PM529149.45-2.61n5.21--
4:51 PM547947.63---2.61--
3:51 PM557848.27---4.34--
2:51 PM558048.94-0.87sw6.08--
1:51 PM548248.63---3.48--
12:51 PM538548.61---2.61--
11:51 AM538347.98-0.87nnw3.48--
10:51 AM519048.17---4.34--
9:51 AM499347.06-0.87s6.95--
8:51 AM489145.5-1.74ne6.08--
7:51 AM488944.91-0.87nw7.82--
6:51 AM479345.08-1.74sw11.3--
5:51 AM489346.07-0.87wsw14.77--
4:51 AM4610046-0.87wsw8.69--
3:51 AM4610046-0.87n3.48--
2:51 AM4610046-0.87-3.48--
1:51 AM4710047-0.87n1.74--
12:51 AM4710047---1.74--
High: 53ºf @1:51 PM    Low: 45ºf @3:51 AM     Approx. Precipitation / Rain Total: in.
Time (PST)Temp. (ºf)Humidity (%)Dew Point (ºf)Barometer (inHG)Wind Speed (mph)Wind DirectionWind Gust (mph)1hr. Precip / Rain Total (in.)Snow Depth
11:51 PM4710047-1.74nnw2.61--
10:51 PM4710047-0.87nnw4.34--
8:51 PM489947.73-0.87sw4.34--
7:51 PM499848.46-2.61n5.21--
6:51 PM499748.19-2.61n4.34--
5:51 PM519349.05---6.08--
4:51 PM529149.45---7.82--
3:51 PM529650.89-0.87e2.61--
2:51 PM529550.61-0.87ese3.48--
1:51 PM539351.03-1.74s5.21--
12:51 PM519649.9---3.48--
11:51 AM519449.33---2.61--
10:51 AM499848.46---2.61--
9:51 AM4810048---2.61--
8:51 AM4610046-0.87s3.48--
7:51 AM4510045---1.74--
6:51 AM4510045-0.87nw2.61--
5:51 AM4510045---2.61--
4:51 AM4510045---3.48--
3:51 AM4510045-0.87nne3.48--
2:51 AM4510045-1.74e4.34--
1:51 AM4510045---2.61--
12:51 AM4510045-0.87ene3.48--
High: 50ºf @10:51 AM    Low: 44ºf @11:51 PM     Approx. Precipitation / Rain Total: in.
Time (PST)Temp. (ºf)Humidity (%)Dew Point (ºf)Barometer (inHG)Wind Speed (mph)Wind DirectionWind Gust (mph)1hr. Precip / Rain Total (in.)Snow Depth
11:51 PM4410044-1.74nne5.21--
10:51 PM4510045-2.61n6.08--
9:51 PM449843.47-1.74n4.34--
8:51 PM449743.2-1.74nw4.34--
7:51 PM458941.96-1.74ne10.43--
6:51 PM459944.74-0.87e3.48--
5:51 PM459744.2-0.87n4.34--
4:51 PM469845.47-1.74ese6.08--
3:51 PM479846.46-0.87n6.95--
2:51 PM479846.46-0.87sw11.3--
1:51 PM499447.35-3.48s9.56--
12:51 PM479846.46-1.74ese4.34--
11:51 AM499748.19---13.03--
10:51 AM509348.06-2.61ssw12.17--
9:51 AM499547.63-1.74nw7.82--
8:51 AM489747.19---4.34--
7:51 AM489646.91-0.87wsw4.34--
6:51 AM489947.73---3.48--
5:51 AM4710047---5.21--
4:51 AM4710047---3.48--
3:51 AM4810048-1.74nnw3.48--
2:51 AM4810048---1.74--
1:51 AM489947.73---1.74--
12:51 AM489847.46------
High: 58ºf @11:51 AM    Low: 44ºf @7:51 AM     Approx. Precipitation / Rain Total: in.
Time (PST)Temp. (ºf)Humidity (%)Dew Point (ºf)Barometer (inHG)Wind Speed (mph)Wind DirectionWind Gust (mph)1hr. Precip / Rain Total (in.)Snow Depth
11:51 PM489546.64---2.61--
10:51 PM489747.19-0.87nne2.61--
9:51 PM499647.91---3.48--
8:51 PM499347.06-1.74nne3.48--
7:51 PM509247.77---5.21--
6:51 PM508846.59-1.74nnw3.48--
5:51 PM518346.02-0.87wnw2.61--
4:51 PM547345.54---0.87--
3:51 PM556844.63---2.61--
2:51 PM556744.25---3.48--
1:51 PM566544.4---3.48--
12:51 PM576444.94---5.21--
11:51 AM586245.05-1.74sse6.08--
10:51 AM508545.67-0.87n2.61--
9:51 AM499146.49-0.87s4.34--
8:51 AM459944.74-1.74ene2.61--
7:51 AM449943.74---1.74--
6:51 AM459543.65---2.61--
5:51 AM449943.74-0.87n1.74--
4:51 AM459443.38---3.48--
3:51 AM469745.2---2.61--
2:51 AM469845.47-1.74n3.48--
1:51 AM469644.92---3.48--
12:51 AM489245.79---1.74--
High: 59ºf @1:51 PM    Low: 43ºf @7:51 AM     Approx. Precipitation / Rain Total: in.
Time (PST)Temp. (ºf)Humidity (%)Dew Point (ºf)Barometer (inHG)Wind Speed (mph)Wind DirectionWind Gust (mph)1hr. Precip / Rain Total (in.)Snow Depth
11:51 PM489245.79---2.61--
10:51 PM489145.5-0.87ene3.48--
9:51 PM498745.3---1.74--
8:51 PM508345.04---1.74--
7:51 PM508445.36---4.34--
6:51 PM518446.34-0.87ssw4.34--
5:51 PM538347.98---4.34--
4:51 PM548047.97-1.74ene4.34--
3:51 PM577348.43-0.87n4.34--
2:51 PM567046.35-1.74n6.08--
1:51 PM596446.84-0.87ssw7.82--
12:51 PM566845.59-2.61s6.08--
11:51 AM517744.05-1.74nne4.34--
10:51 AM498143.43-1.74e6.08--
9:51 AM468942.94---2.61--
8:51 AM449241.83-0.87wnw3.48--
7:51 AM439541.67-0.87nne2.61--
6:51 AM439541.67---3.48--
5:51 AM439240.84-1.74nne2.61--
4:51 AM449342.11-0.87nnw3.48--
3:51 AM449342.11-1.74nnw4.34--
2:51 AM449241.83-1.74n4.34--
1:51 AM459543.65-1.74n3.48--
12:51 AM459543.65---4.34--
High: 57ºf @3:51 PM    Low: 41ºf @9:51 AM     Approx. Precipitation / Rain Total: in.
Time (PST)Temp. (ºf)Humidity (%)Dew Point (ºf)Barometer (inHG)Wind Speed (mph)Wind DirectionWind Gust (mph)1hr. Precip / Rain Total (in.)Snow Depth
11:51 PM459343.1-2.61n3.48--
10:51 PM469745.2-1.74n3.48--
9:51 PM469845.47---1.74--
8:51 PM489346.07-0.87ne5.21--
7:51 PM489446.36---3.48--
6:51 PM509047.18---3.48--
5:51 PM528347---2.61--
4:51 PM547345.54---3.48--
3:51 PM576344.53-1.74n4.34--
2:51 PM576444.94-1.74nnw4.34--
1:51 PM576746.15-2.61nne4.34--
12:51 PM547245.18-0.87ese5.21--
11:51 AM508645.98-2.61s6.08--
10:51 AM4410044---3.48--
9:51 AM4110041-0.87ssw3.48--
8:51 AM4110041-0.87s2.61--
7:51 AM4110041------
6:51 AM4110041---0.87--
5:51 AM4110041---0.87--
4:51 AM4210042---2.61--
3:51 AM4210042---1.74--
2:51 AM4210042---1.74--
1:51 AM4210042---2.61--
12:51 AM4210042-0.87ne1.74--
High: 56ºf @3:51 PM    Low: 36ºf @6:51 AM     Approx. Precipitation / Rain Total: in.
Time (PST)Temp. (ºf)Humidity (%)Dew Point (ºf)Barometer (inHG)Wind Speed (mph)Wind DirectionWind Gust (mph)1hr. Precip / Rain Total (in.)Snow Depth
11:51 PM439942.74-0.87n2.61--
10:51 PM449943.74-0.87nnw2.61--
9:51 PM459643.93---4.34--
8:51 PM469243.81-1.74n4.34--
7:51 PM488844.62-1.74n6.95--
6:51 PM489045.21-2.61nnw6.95--
5:51 PM527945.69-1.74n5.21--
4:51 PM557145.77---2.61--
3:51 PM566745.2-1.74nne3.48--
2:51 PM556543.45-1.74n5.21--
1:51 PM566142.74-0.87n4.34--
12:51 PM546542.5-1.74ese4.34--
11:51 AM497441.08-1.74se5.21--
10:51 AM438739.4-2.61se4.34--
9:51 AM419339.13-0.87s3.48--
8:51 AM3910039-0.87ne1.74--
7:51 AM3710037-1.74nne2.61--
6:51 AM3610036---1.74--
5:51 AM3710037-0.87n2.61--
4:51 AM3710037-0.87wnw2.61--
3:51 AM3710037---2.61--
2:51 AM389937.74---0.87--
1:51 AM399838.48---0.87--
12:51 AM409739.22---0.87--
High: 53ºf @2:51 PM    Low: 37ºf @8:51 AM     Approx. Precipitation / Rain Total: in.
Time (PST)Temp. (ºf)Humidity (%)Dew Point (ºf)Barometer (inHG)Wind Speed (mph)Wind DirectionWind Gust (mph)1hr. Precip / Rain Total (in.)Snow Depth
11:51 PM419740.21---2.61--
10:51 PM409739.22-0.87nne1.74--
9:51 PM419439.41---1.74--
8:51 PM428939---2.61--
7:51 PM448740.38---1.74--
6:51 PM448840.68---2.61--
5:51 PM468140.5-0.87ese5.21--
4:51 PM487239.41-1.74ene5.21--
3:51 PM516439.26-0.87n6.95--
2:51 PM536039.49-1.74wnw6.08--
1:51 PM516539.65-1.74ne7.82--
12:51 PM506839.86-0.87n5.21--
11:51 AM477539.49-1.74ese5.21--
10:51 AM449442.39-2.61s5.21--
9:51 AM3910039-0.87e3.48--
8:51 AM3710037---2.61--
7:51 AM3710037-0.87ssw4.34--
6:51 AM3710037---2.61--
5:51 AM3710037-0.87n2.61--
4:51 AM3810038---2.61--
3:51 AM3910039---1.74--
2:51 AM399938.74------
1:51 AM399938.74---1.74--
12:51 AM399838.48---1.74--
High: 49ºf @3:51 PM    Low: 34ºf @3:51 AM     Approx. Precipitation / Rain Total: in.
Time (PST)Temp. (ºf)Humidity (%)Dew Point (ºf)Barometer (inHG)Wind Speed (mph)Wind DirectionWind Gust (mph)1hr. Precip / Rain Total (in.)Snow Depth
11:51 PM399738.22---1.74--
10:51 PM419238.86---0.87--
9:51 PM429039.28---2.61--
8:51 PM419439.41-0.87nne4.34--
7:51 PM419138.58---2.61--
6:51 PM428838.71---2.61--
5:51 PM448539.79---3.48--
4:51 PM477840.5-0.87ene5.21--
3:51 PM497441.08-0.87nne4.34--
2:51 PM497140.01-1.74ne6.08--
1:51 PM487239.41-1.74sse5.21--
12:51 PM487440.11-0.87ene6.08--
11:51 AM438338.2-0.87nne5.21--
10:51 AM428638.12-0.87sse3.48--
9:51 AM3710037---2.61--
8:51 AM3510035---2.61--
7:51 AM3410034---3.48--
6:51 AM3410034-0.87n3.48--
5:51 AM3410034-0.87ne2.61--
4:51 AM3410034-0.87n3.48--
3:51 AM3410034---2.61--
2:51 AM3510035-0.87n3.48--
1:51 AM3510035-0.87n3.48--
12:51 AM3510035-2.61n4.34--
High: 45ºf @3:51 PM    Low: 36ºf @11:51 PM     Approx. Precipitation / Rain Total: in.
Time (PST)Temp. (ºf)Humidity (%)Dew Point (ºf)Barometer (inHG)Wind Speed (mph)Wind DirectionWind Gust (mph)1hr. Precip / Rain Total (in.)Snow Depth
11:51 PM3610036-0.87n2.61--
10:51 PM369735.23---4.34--
9:51 PM379635.97-1.74ne5.21--
8:51 PM379535.7-2.61n6.95--
7:51 PM389737.23-1.74n6.08--
6:51 PM399437.42-2.61n4.34--
5:51 PM418035.31---3.48--
4:51 PM438338.2-0.87sse6.95--
3:51 PM458239.84-0.87e5.21--
2:51 PM439240.84-1.74se6.95--
1:51 PM449342.11-1.74sse7.82--
12:51 PM409538.69-1.74ene3.48--
11:51 AM389837.49-1.74e4.34--
10:51 AM379936.75-0.87e3.48--
9:51 AM389937.74---1.74--
8:51 AM389737.23-0.87nnw6.08--
7:51 AM409939.74---4.34--
6:51 AM4010040-0.87ese4.34--
5:51 AM4110041---2.61--
4:51 AM4110041---2.61--
3:51 AM4110041---2.61--
2:51 AM419940.74------
1:51 AM419840.48---0.87--
12:51 AM429540.67---2.61--
High: 50ºf @1:51 PM    Low: 41ºf @11:51 PM     Approx. Precipitation / Rain Total: in.
Time (PST)Temp. (ºf)Humidity (%)Dew Point (ºf)Barometer (inHG)Wind Speed (mph)Wind DirectionWind Gust (mph)1hr. Precip / Rain Total (in.)Snow Depth
11:51 PM419639.95-1.74nne2.61--
10:51 PM419539.68-1.74nnw3.48--
9:51 PM419339.13-0.87nne2.61--
8:51 PM429340.12-0.87ne5.21--
7:51 PM438939.98-0.87ne3.48--
6:51 PM429039.28---4.34--
5:51 PM448439.48-0.87sse6.08--
4:51 PM467739.2-0.87se7.82--
3:51 PM487440.11-2.61wnw9.56--
2:51 PM497240.37-1.74ene6.08--
1:51 PM507341.69-0.87e4.34--
12:51 PM497942.77-1.74ene5.21--
11:51 AM478342.11-2.61ese5.21--
10:51 AM459142.53-0.87se3.48--
9:51 AM449542.66---3.48--
8:51 AM439742.21-0.87nne5.21--
7:51 AM429640.94-0.87nne3.48--
6:51 AM429841.48-0.87nnw1.74--
5:51 AM429741.21---3.48--
4:51 AM429841.48-0.87n3.48--
3:51 AM429941.74-0.87n6.95--
2:51 AM429941.74-1.74n4.34--
1:51 AM4210042-1.74n3.48--
12:51 AM4210042-1.74nnw3.48--
High: 50ºf @9:51 AM    Low: 42ºf @11:51 PM     Approx. Precipitation / Rain Total: in.
Time (PST)Temp. (ºf)Humidity (%)Dew Point (ºf)Barometer (inHG)Wind Speed (mph)Wind DirectionWind Gust (mph)1hr. Precip / Rain Total (in.)Snow Depth
11:51 PM4210042-0.87nne2.61--
10:51 PM4310043---1.74--
9:51 PM4310043---3.48--
8:51 PM4310043-0.87n2.61--
7:51 PM4310043-0.87nw3.48--
6:51 PM4410044---2.61--
5:51 PM459944.74-0.87ene4.34--
4:51 PM469845.47---3.48--
3:51 PM479645.92---3.48--
2:51 PM479645.92---5.21--
1:51 PM479746.19-2.61ssw13.03--
12:51 PM488543.71-6.95s13.03--
11:51 AM498043.1-6.08s19.99--
10:51 AM498645-6.08s14.77--
9:51 AM507943.75-6.08s14.77--
8:51 AM497942.77-6.08sse15.64--
7:51 AM488142.45-7.82sse16.51--
6:51 AM488343.09-6.08s16.51--
5:51 AM488343.09-7.82s19.99--
4:51 AM488543.71-7.82s19.12--
3:51 AM478843.63-6.95s17.38--
2:51 AM479044.22-6.95s20.86--
1:51 AM478943.93-9.56s22.59--
12:51 AM488944.91-11.3s26.07--
High: 52ºf @1:51 PM    Low: 40ºf @12:51 AM     Approx. Precipitation / Rain Total: in.
Time (PST)Temp. (ºf)Humidity (%)Dew Point (ºf)Barometer (inHG)Wind Speed (mph)Wind DirectionWind Gust (mph)1hr. Precip / Rain Total (in.)Snow Depth
11:51 PM498845.6-8.69s24.33--
10:51 PM498745.3-8.69s---
9:51 PM517744.05-6.95se19.99--
8:51 PM508244.72-7.82se19.99--
7:51 PM498344.06-4.34se21.72--
6:51 PM498344.06-5.21sse12.17--
5:51 PM497742.11-6.08se16.51--
4:51 PM497340.73-6.95se25.2--
3:51 PM507140.97-9.56ese22.59--
2:51 PM516640.05-6.95ese18.25--
1:51 PM526038.55-10.43ese28.68--
12:51 PM526138.97-6.08sse15.64--
11:51 AM497441.08-4.34s24.33--
10:51 AM467337.84-6.08sse22.59--
9:51 AM448339.17-3.48s18.25--
8:51 AM428838.71-2.61sse13.9--
7:51 AM456835.08-4.34se17.38--
6:51 AM447937.91-6.08ese17.38--
5:51 AM447937.91-3.48sse13.9--
4:51 AM438338.2-5.21sse16.51--
3:51 AM429239.85-1.74w6.95--
2:51 AM428838.71-1.74sw6.95--
1:51 AM419038.3-0.87nw6.08--
12:51 AM409538.69---3.48--
High: 56ºf @1:51 PM    Low: 37ºf @6:51 AM     Approx. Precipitation / Rain Total: in.
Time (PST)Temp. (ºf)Humidity (%)Dew Point (ºf)Barometer (inHG)Wind Speed (mph)Wind DirectionWind Gust (mph)1hr. Precip / Rain Total (in.)Snow Depth
11:51 PM409137.59-0.87w2.61--
10:51 PM409338.14---3.48--
9:51 PM418737.43-0.87w4.34--
8:51 PM428638.12-1.74w5.21--
7:51 PM437836.62-0.87wsw6.95--
6:51 PM457136.17-1.74ne5.21--
5:51 PM486034.79-1.74sw11.3--
4:51 PM496638.14---8.69--
3:51 PM525536.34-1.74ssw7.82--
2:51 PM545136.28-2.61ssw10.43--
1:51 PM565037.63-3.48s9.56--
12:51 PM555539.13-0.87sw6.08--
11:51 AM526942.15-1.74s6.08--
10:51 AM497842.44-2.61ssw6.08--
9:51 AM479144.51-0.87ssw6.08--
8:51 AM4010040-0.87s3.48--
7:51 AM3710037---1.74--
6:51 AM3710037-0.87nnw2.61--
5:51 AM3710037---2.61--
4:51 AM3710037---1.74--
3:51 AM3710037---2.61--
2:51 AM3710037---2.61--
1:51 AM3810038-0.87wsw3.48--
12:51 AM3910039---2.61--
High: 46ºf @12:51 PM    Low: 39ºf @9:51 PM     Approx. Precipitation / Rain Total: in.
Time (PST)Temp. (ºf)Humidity (%)Dew Point (ºf)Barometer (inHG)Wind Speed (mph)Wind DirectionWind Gust (mph)1hr. Precip / Rain Total (in.)Snow Depth
11:51 PM3910039-0.87ese2.61--
10:51 PM399938.74---3.48--
9:51 PM399938.74---4.34--
8:51 PM409939.74-0.87nne5.21--
7:51 PM419940.74---2.61--
6:51 PM409939.74-1.74nne3.48--
5:51 PM419940.74-0.87n3.48--
4:51 PM429741.21-0.87ne4.34--
3:51 PM439341.12-1.74ene5.21--
2:51 PM429841.48-0.87sse5.21--
1:51 PM439742.21---4.34--
12:51 PM469444.37-1.74s5.21--
11:51 AM449743.2---1.74--
10:51 AM449041.26---2.61--
9:51 AM429841.48---3.48--
8:51 AM429340.12-1.74nne9.56--
7:51 AM4210042---3.48--
6:51 AM4210042-1.74n4.34--
5:51 AM429941.74---3.48--
4:51 AM429741.21---6.08--
3:51 AM439942.74-0.87ene5.21--
2:51 AM449743.2-0.87w3.48--
1:51 AM4410044---3.48--
12:51 AM4510045---4.34--
High: 51ºf @2:51 PM    Low: 44ºf @4:51 AM     Approx. Precipitation / Rain Total: in.
Time (PST)Temp. (ºf)Humidity (%)Dew Point (ºf)Barometer (inHG)Wind Speed (mph)Wind DirectionWind Gust (mph)1hr. Precip / Rain Total (in.)Snow Depth
11:51 PM4510045-0.87se4.34--
10:51 PM4510045---3.48--
9:51 PM4510045---2.61--
8:51 PM4510045-0.87w3.48--
7:51 PM459944.74---1.74--
6:51 PM469945.73---2.61--
5:51 PM469845.47---2.61--
4:51 PM489546.64---6.95--
3:51 PM499146.49---2.61--
2:51 PM518646.96---4.34--
1:51 PM499547.63---2.61--
12:51 PM489446.36-0.87w4.34--
11:51 AM479645.92---9.56--
10:51 AM459343.1-4.34e13.03--
9:51 AM4510045---2.61--
8:51 AM4510045---6.95--
7:51 AM4410044-1.74nne3.48--
6:51 AM4510045---0.87--
5:51 AM4410044---2.61--
4:51 AM4410044---1.74--
3:51 AM4410044-0.87nnw5.21--
2:51 AM4410044-0.87sw2.61--
1:51 AM4410044---1.74--
12:51 AM4510045---2.61--
High: 59ºf @1:51 AM    Low: 44ºf @11:51 PM     Approx. Precipitation / Rain Total: in.
Time (PST)Temp. (ºf)Humidity (%)Dew Point (ºf)Barometer (inHG)Wind Speed (mph)Wind DirectionWind Gust (mph)1hr. Precip / Rain Total (in.)Snow Depth
11:51 PM4410044---2.61--
10:51 PM459543.65-0.87ssw3.48--
9:51 PM4410044---3.48--
8:51 PM449843.47---6.08--
7:51 PM459142.53-3.48n12.17--
6:51 PM469043.23-5.21e13.03--
5:51 PM469444.37-5.21e13.03--
4:51 PM4810048-1.74nne3.48--
3:51 PM4710047-0.87nnw5.21--
2:51 PM499948.73-2.61nne5.21--
1:51 PM509949.73-2.61n6.95--
12:51 PM539551.61-2.61ssw13.9--
11:51 AM549251.73-5.21sse17.38--
10:51 AM5210052-0.87sw6.08--
9:51 AM5110051---4.34--
8:51 AM519950.73-0.87sw10.43--
7:51 AM529550.61-0.87ssw13.9--
6:51 AM548047.97-6.08sse20.86--
5:51 AM528748.25-1.74s12.17--
4:51 AM566745.2-4.34s18.25--
3:51 AM584838.42-2.61ssw13.03--
2:51 AM594135.33-2.61ssw14.77--
1:51 AM593833.43-1.74ssw20.86--
12:51 AM583832.54-3.48ssw21.72--
High: 70ºf @11:51 AM    Low: 49ºf @7:51 AM     Approx. Precipitation / Rain Total: in.
Time (PST)Temp. (ºf)Humidity (%)Dew Point (ºf)Barometer (inHG)Wind Speed (mph)Wind DirectionWind Gust (mph)1hr. Precip / Rain Total (in.)Snow Depth
11:51 PM612928.52-6.95s19.12--
10:51 PM603230.06-3.48s22.59--
9:51 PM622727.64-9.56s19.99--
8:51 PM622525.78-4.34s20.86--
7:51 PM642325.46-7.82s21.72--
6:51 PM632930.24-4.34s17.38--
5:51 PM652730.21-4.34s16.51--
4:51 PM653234.42-6.08s15.64--
3:51 PM663134.49-6.95s18.25--
2:51 PM664242.24-0.87ssw18.25--
1:51 PM682631.83-6.08s15.64--
12:51 PM692531.71-7.82s18.25--
11:51 AM702835.39-6.95s18.25--
10:51 AM654442.55-2.61ssw7.82--
9:51 AM528547.63---2.61--
8:51 AM508445.36-0.87nw3.48--
7:51 AM499146.49-0.87w5.21--
6:51 AM499647.91-2.61n3.48--
5:51 AM499447.35-0.87sw3.48--
4:51 AM499347.06-2.61n4.34--
3:51 AM518546.65---4.34--
2:51 AM509247.77-0.87n2.61--
1:51 AM509648.9---3.48--
12:51 AM529049.16-0.87w3.48--
High: 71ºf @2:51 PM    Low: 49ºf @7:51 AM     Approx. Precipitation / Rain Total: in.
Time (PST)Temp. (ºf)Humidity (%)Dew Point (ºf)Barometer (inHG)Wind Speed (mph)Wind DirectionWind Gust (mph)1hr. Precip / Rain Total (in.)Snow Depth
11:51 PM539150.44-0.87w3.48--
10:51 PM539451.32---2.61--
9:51 PM558349.93-1.74nnw4.34--
8:51 PM549753.17---4.34--
7:51 PM569053.11-1.74n3.48--
6:51 PM598253.51-0.87nnw3.48--
5:51 PM599457.27-1.74n4.34--
4:51 PM646752.82-1.74ssw7.82--
3:51 PM677157.28---8.69--
2:51 PM714749.74-5.21s13.03--
1:51 PM696757.58-0.87sse3.48--
12:51 PM676253.54-0.87e6.95--
11:51 AM647355.17-1.74nne4.34--
10:51 AM598654.82---4.34--
9:51 AM579856.44-1.74sse3.48--
8:51 AM5210052-0.87nne4.34--
7:51 AM4910049-0.87nnw2.61--
6:51 AM5010050-0.87n2.61--
5:51 AM5010050---2.61--
4:51 AM5010050-0.87n3.48--
3:51 AM5110051---2.61--
2:51 AM5310053-1.74s2.61--
1:51 AM5310053---0.87--
12:51 AM5310053---2.61--
High: 67ºf @1:51 PM    Low: 50ºf @7:51 AM     Approx. Precipitation / Rain Total: in.
Time (PST)Temp. (ºf)Humidity (%)Dew Point (ºf)Barometer (inHG)Wind Speed (mph)Wind DirectionWind Gust (mph)1hr. Precip / Rain Total (in.)Snow Depth
11:51 PM5410054---1.74--
10:51 PM5510055---1.74--
9:51 PM5610056------
8:51 PM5610056---1.74--
7:51 PM5810058---1.74--
6:51 PM599758.15---5.21--
5:51 PM619459.26-2.61n4.34--
4:51 PM648659.72---1.74--
3:51 PM658359.71---3.48--
2:51 PM668260.34---3.48--
1:51 PM677759.54-0.87nnw5.21--
12:51 PM658359.71-0.87s4.34--
11:51 AM619459.26-2.61s5.21--
10:51 AM5610056-1.74s6.08--
9:51 AM5310053---2.61--
8:51 AM5110051-0.87ene2.61--
7:51 AM5010050-0.87nne2.61--
6:51 AM5110051---3.48--
5:51 AM5210052---2.61--
4:51 AM5210052---3.48--
3:51 AM5310053---2.61--
2:51 AM5310053-0.87w3.48--
1:51 AM5410054---1.74--
12:51 AM5510055---2.61--
High: 56ºf @5:51 PM    Low: 55ºf @6:51 PM     Approx. Precipitation / Rain Total: in.
Time (PST)Temp. (ºf)Humidity (%)Dew Point (ºf)Barometer (inHG)Wind Speed (mph)Wind DirectionWind Gust (mph)1hr. Precip / Rain Total (in.)Snow Depth
11:51 PM5510055-0.87nne3.48--
10:51 PM5510055-3.48nnw5.21--
9:51 PM5510055---2.61--
8:51 PM5510055-1.74nnw4.34--
6:51 PM5510055---1.74--
5:51 PM5610056-1.74n3.48--
Past Weather Disclaimer Note regarding "Approx. Precipitation / Rain Total"

Currently

Light Rain 50°F
29.86in
Barometer
86%
Humidity
Southeast 9.2mph
Wind
Light Rain

More Local Information

Bookmark and Share